Location: Cruquius
(52.3348°N, 4.6319°E)
Time: 18:47:20
(UTC+00:00)

Cosmos 1271 Rocket - Pass Details

Date: 12 May 2021
Orbit: 497 x 545 km, 81.2° (Epoch: 20 June)

Event Time Altitude Azimuth Distance (km) Brightness Sun altitude
Exits shadow 21:40:00 11° 206° (SSW) 1,754 5.1 -14.8°
Maximum altitude 21:43:48 58° 286° (WNW) 641 3.3 -15.1°
Drops below altitude 10° 21:47:47 10° 6° (N) 1,827 6.3 -15.4°
Sets 21:49:59 0° 11° (N) 2,722 7.3 -15.5°
